Year,Month,Day,Hour,Minute,Value (Times are PST for temperature in C)
2015,09,30,00,00,10.50
2015,09,30,00,01,10.50
2015,09,30,00,02,10.50
2015,09,30,00,03,10.50
2015,09,30,00,04,10.40
2015,09,30,00,05,10.40
2015,09,30,00,06,10.40
2015,09,30,00,07,10.40
2015,09,30,00,08,10.40
2015,09,30,00,09,10.40
2015,09,30,00,10,10.40
2015,09,30,00,11,10.40
2015,09,30,00,12,10.40
2015,09,30,00,13,10.40
2015,09,30,00,14,10.40
2015,09,30,00,15,10.40
2015,09,30,00,16,10.40
2015,09,30,00,17,10.30
2015,09,30,00,18,10.30
2015,09,30,00,19,10.30
2015,09,30,00,20,10.30
2015,09,30,00,21,10.30
2015,09,30,00,22,10.30
2015,09,30,00,23,10.30
2015,09,30,00,24,10.30
2015,09,30,00,25,10.30
2015,09,30,00,26,10.20
2015,09,30,00,27,10.20
2015,09,30,00,28,10.20
2015,09,30,00,29,10.20
2015,09,30,00,30,10.20
2015,09,30,00,31,10.10
2015,09,30,00,32,10.10
2015,09,30,00,33,10.10
2015,09,30,00,34,10.10
2015,09,30,00,35,10.10
2015,09,30,00,36,10.10
2015,09,30,00,37,10.10
2015,09,30,00,38,10.10
2015,09,30,00,39,10.10
2015,09,30,00,40,10.00
2015,09,30,00,41,10.00
2015,09,30,00,42,10.00
2015,09,30,00,43,10.00
2015,09,30,00,44,10.00
2015,09,30,00,45,10.00
2015,09,30,00,46,10.00
2015,09,30,00,47,10.00
2015,09,30,00,48,9.90
2015,09,30,00,49,9.90
2015,09,30,00,50,9.90
2015,09,30,00,51,9.90
2015,09,30,00,52,9.90
2015,09,30,00,53,9.90
2015,09,30,00,54,9.90
2015,09,30,00,55,9.90
2015,09,30,00,56,9.90
2015,09,30,00,57,9.90
2015,09,30,00,58,9.90
2015,09,30,00,59,9.80
2015,09,30,01,00,9.80
2015,09,30,01,01,9.80
2015,09,30,01,02,9.80
2015,09,30,01,03,9.80
2015,09,30,01,04,9.80
2015,09,30,01,05,9.80
2015,09,30,01,06,9.80
2015,09,30,01,07,9.80
2015,09,30,01,08,9.70
2015,09,30,01,09,9.70
2015,09,30,01,10,9.70
2015,09,30,01,11,9.70
2015,09,30,01,12,9.70
2015,09,30,01,13,9.70
2015,09,30,01,14,9.70
2015,09,30,01,15,9.80
2015,09,30,01,16,9.80
2015,09,30,01,17,9.80
2015,09,30,01,18,9.80
2015,09,30,01,19,9.80
2015,09,30,01,20,9.80
2015,09,30,01,21,9.80
2015,09,30,01,22,9.80
2015,09,30,01,23,9.80
2015,09,30,01,24,9.80
2015,09,30,01,25,9.80
2015,09,30,01,26,9.80
2015,09,30,01,27,9.70
2015,09,30,01,28,9.70
2015,09,30,01,29,9.70
2015,09,30,01,30,9.70
2015,09,30,01,31,9.70
2015,09,30,01,32,9.60
2015,09,30,01,33,9.60
2015,09,30,01,34,9.60
2015,09,30,01,35,9.60
2015,09,30,01,36,9.60
2015,09,30,01,37,9.50
2015,09,30,01,38,9.60
2015,09,30,01,39,9.50
2015,09,30,01,40,9.50
2015,09,30,01,41,9.50
2015,09,30,01,42,9.50
2015,09,30,01,43,9.50
2015,09,30,01,44,9.50
2015,09,30,01,45,9.40
2015,09,30,01,46,9.40
2015,09,30,01,47,9.40
2015,09,30,01,48,9.40
2015,09,30,01,49,9.40
2015,09,30,01,50,9.40
2015,09,30,01,51,9.40
2015,09,30,01,52,9.40
2015,09,30,01,53,9.40
2015,09,30,01,54,9.40
2015,09,30,01,55,9.40
2015,09,30,01,56,9.40
2015,09,30,01,57,9.40
2015,09,30,01,58,9.30
2015,09,30,01,59,9.30
2015,09,30,02,00,9.30
2015,09,30,02,01,9.30
2015,09,30,02,02,9.30
2015,09,30,02,03,9.30
2015,09,30,02,04,9.30
2015,09,30,02,05,9.30
2015,09,30,02,06,9.30
2015,09,30,02,07,9.30
2015,09,30,02,08,9.30
2015,09,30,02,09,9.30
2015,09,30,02,10,9.30
2015,09,30,02,11,9.30
2015,09,30,02,12,9.30
2015,09,30,02,13,9.30
2015,09,30,02,14,9.30
2015,09,30,02,15,9.30
2015,09,30,02,16,9.30
2015,09,30,02,17,9.20
2015,09,30,02,18,9.20
2015,09,30,02,19,9.20
2015,09,30,02,20,9.20
2015,09,30,02,21,9.30
2015,09,30,02,22,9.30
2015,09,30,02,23,9.30
2015,09,30,02,24,9.30
2015,09,30,02,25,9.40
2015,09,30,02,26,9.40
2015,09,30,02,27,9.40
2015,09,30,02,28,9.40
2015,09,30,02,29,9.40
2015,09,30,02,30,9.40
2015,09,30,02,31,9.40
2015,09,30,02,32,9.30
2015,09,30,02,33,9.30
2015,09,30,02,34,9.30
2015,09,30,02,35,9.20
2015,09,30,02,36,9.20
2015,09,30,02,37,9.20
2015,09,30,02,38,9.20
2015,09,30,02,39,9.20
2015,09,30,02,40,9.20
2015,09,30,02,41,9.20
2015,09,30,02,42,9.20
2015,09,30,02,43,9.20
2015,09,30,02,44,9.20
2015,09,30,02,45,9.20
2015,09,30,02,46,9.20
2015,09,30,02,47,9.20
2015,09,30,02,48,9.10
2015,09,30,02,49,9.10
2015,09,30,02,50,9.10
2015,09,30,02,51,9.10
2015,09,30,02,52,9.10
2015,09,30,02,53,9.10
2015,09,30,02,54,9.10
2015,09,30,02,55,9.10
2015,09,30,02,56,9.10
2015,09,30,02,57,9.10
2015,09,30,02,58,9.10
2015,09,30,02,59,9.10
2015,09,30,03,00,9.10
2015,09,30,03,01,9.10
2015,09,30,03,02,9.10
2015,09,30,03,03,9.10
2015,09,30,03,04,9.10
2015,09,30,03,05,9.10
2015,09,30,03,06,9.00
2015,09,30,03,07,9.00
2015,09,30,03,08,9.00
2015,09,30,03,09,9.00
2015,09,30,03,10,9.00
2015,09,30,03,11,8.90
2015,09,30,03,12,8.90
2015,09,30,03,13,8.90
2015,09,30,03,14,8.90
2015,09,30,03,15,8.90
2015,09,30,03,16,8.90
2015,09,30,03,17,8.90
2015,09,30,03,18,8.90
2015,09,30,03,19,8.90
2015,09,30,03,20,8.90
2015,09,30,03,21,8.90
2015,09,30,03,22,8.90
2015,09,30,03,23,8.90
2015,09,30,03,24,8.90
2015,09,30,03,25,8.90
2015,09,30,03,26,8.90
2015,09,30,03,27,8.90
2015,09,30,03,28,8.90
2015,09,30,03,29,8.90
2015,09,30,03,30,8.90
2015,09,30,03,31,8.90
2015,09,30,03,32,8.90
2015,09,30,03,33,8.90
2015,09,30,03,34,8.90
2015,09,30,03,35,8.80
2015,09,30,03,36,8.80
2015,09,30,03,37,8.80
2015,09,30,03,38,8.80
2015,09,30,03,39,8.80
2015,09,30,03,40,8.80
2015,09,30,03,41,8.80
2015,09,30,03,42,8.80
2015,09,30,03,43,8.80
2015,09,30,03,44,8.80
2015,09,30,03,45,8.80
2015,09,30,03,46,8.80
2015,09,30,03,47,8.70
2015,09,30,03,48,8.70
2015,09,30,03,49,8.70
2015,09,30,03,50,8.70
2015,09,30,03,51,8.70
2015,09,30,03,52,8.70
2015,09,30,03,53,8.70
2015,09,30,03,54,8.70
2015,09,30,03,55,8.70
2015,09,30,03,56,8.70
2015,09,30,03,57,8.70
2015,09,30,03,58,8.70
2015,09,30,03,59,8.70
2015,09,30,04,00,8.70
2015,09,30,04,01,8.80
2015,09,30,04,02,8.80
2015,09,30,04,03,8.80
2015,09,30,04,04,8.70
2015,09,30,04,05,8.70
2015,09,30,04,06,8.70
2015,09,30,04,07,8.70
2015,09,30,04,08,8.70
2015,09,30,04,09,8.70
2015,09,30,04,10,8.60
2015,09,30,04,11,8.60
2015,09,30,04,12,8.60
2015,09,30,04,13,8.60
2015,09,30,04,14,8.60
2015,09,30,04,15,8.70
2015,09,30,04,16,8.70
2015,09,30,04,17,8.70
2015,09,30,04,18,8.80
2015,09,30,04,19,8.80
2015,09,30,04,20,8.80
2015,09,30,04,21,8.80
2015,09,30,04,22,8.90
2015,09,30,04,23,8.90
2015,09,30,04,24,8.90
2015,09,30,04,25,8.90
2015,09,30,04,26,8.80
2015,09,30,04,27,8.80
2015,09,30,04,28,8.80
2015,09,30,04,29,8.70
2015,09,30,04,30,8.70
2015,09,30,04,31,8.70
2015,09,30,04,32,8.70
2015,09,30,04,33,8.70
2015,09,30,04,34,8.60
2015,09,30,04,35,8.60
2015,09,30,04,36,8.60
2015,09,30,04,37,8.60
2015,09,30,04,38,8.60
2015,09,30,04,39,8.60
2015,09,30,04,40,8.50
2015,09,30,04,41,8.50
2015,09,30,04,42,8.50
2015,09,30,04,43,8.50
2015,09,30,04,44,8.50
2015,09,30,04,45,8.50
2015,09,30,04,46,8.50
2015,09,30,04,47,8.60
2015,09,30,04,48,8.60
2015,09,30,04,49,8.60
2015,09,30,04,50,8.60
2015,09,30,04,51,8.50
2015,09,30,04,52,8.50
2015,09,30,04,53,8.50
2015,09,30,04,54,8.50
2015,09,30,04,55,8.40
2015,09,30,04,56,8.40
2015,09,30,04,57,8.40
2015,09,30,04,58,8.40
2015,09,30,04,59,8.40
2015,09,30,05,00,8.40
2015,09,30,05,01,8.30
2015,09,30,05,02,8.30
2015,09,30,05,03,8.30
2015,09,30,05,04,8.40
2015,09,30,05,05,8.40
2015,09,30,05,06,8.40
2015,09,30,05,07,8.40
2015,09,30,05,08,8.40
2015,09,30,05,09,8.40
2015,09,30,05,10,8.40
2015,09,30,05,11,8.40
2015,09,30,05,12,8.30
2015,09,30,05,13,8.30
2015,09,30,05,14,8.30
2015,09,30,05,15,8.30
2015,09,30,05,16,8.30
2015,09,30,05,17,8.30
2015,09,30,05,18,8.30
2015,09,30,05,19,8.20
2015,09,30,05,20,8.20
2015,09,30,05,21,8.20
2015,09,30,05,22,8.20
2015,09,30,05,23,8.20
2015,09,30,05,24,8.20
2015,09,30,05,25,8.10
2015,09,30,05,26,8.10
2015,09,30,05,27,8.10
2015,09,30,05,28,8.10
2015,09,30,05,29,8.10
2015,09,30,05,30,8.10
2015,09,30,05,31,8.10
2015,09,30,05,32,8.10
2015,09,30,05,33,8.10
2015,09,30,05,34,8.10
2015,09,30,05,35,8.10
2015,09,30,05,36,8.10
2015,09,30,05,37,8.10
2015,09,30,05,38,8.10
2015,09,30,05,39,8.10
2015,09,30,05,40,8.10
2015,09,30,05,41,8.10
2015,09,30,05,42,8.10
2015,09,30,05,43,8.10
2015,09,30,05,44,8.10
2015,09,30,05,45,8.10
2015,09,30,05,46,8.00
2015,09,30,05,47,8.00
2015,09,30,05,48,8.00
2015,09,30,05,49,8.00
2015,09,30,05,50,8.00
2015,09,30,05,51,7.90
2015,09,30,05,52,7.90
2015,09,30,05,53,7.90
2015,09,30,05,54,7.90
2015,09,30,05,55,7.90
2015,09,30,05,56,7.90
2015,09,30,05,57,7.90
2015,09,30,05,58,7.90
2015,09,30,05,59,7.80
2015,09,30,06,00,7.80
2015,09,30,06,01,7.80
2015,09,30,06,02,7.80
2015,09,30,06,03,7.80
2015,09,30,06,04,7.90
2015,09,30,06,05,7.90
2015,09,30,06,06,7.90
2015,09,30,06,07,7.90
2015,09,30,06,08,8.00
2015,09,30,06,09,8.00
2015,09,30,06,10,8.00
2015,09,30,06,11,8.00
2015,09,30,06,12,7.90
2015,09,30,06,13,7.90
2015,09,30,06,14,7.90
2015,09,30,06,15,7.90
2015,09,30,06,16,7.80
2015,09,30,06,17,7.80
2015,09,30,06,18,7.80
2015,09,30,06,19,7.80
2015,09,30,06,20,7.80
2015,09,30,06,21,7.80
2015,09,30,06,22,7.80
2015,09,30,06,23,7.80
2015,09,30,06,24,7.80
2015,09,30,06,25,7.80
2015,09,30,06,26,7.80
2015,09,30,06,27,7.80
2015,09,30,06,28,7.80
2015,09,30,06,29,7.80
2015,09,30,06,30,7.80
2015,09,30,06,31,7.80
2015,09,30,06,32,7.70
2015,09,30,06,33,7.70
2015,09,30,06,34,7.70
2015,09,30,06,35,7.70
2015,09,30,06,36,7.70
2015,09,30,06,37,7.70
2015,09,30,06,38,7.70
2015,09,30,06,39,7.70
2015,09,30,06,40,7.70
2015,09,30,06,41,7.70
2015,09,30,06,42,7.70
2015,09,30,06,43,7.60
2015,09,30,06,44,7.60
2015,09,30,06,45,7.60
2015,09,30,06,46,7.60
2015,09,30,06,47,7.60
2015,09,30,06,48,7.60
2015,09,30,06,49,7.60
2015,09,30,06,50,7.60
2015,09,30,06,51,7.50
2015,09,30,06,52,7.50
2015,09,30,06,53,7.50
2015,09,30,06,54,7.50
2015,09,30,06,55,7.50
2015,09,30,06,56,7.50
2015,09,30,06,57,7.50
2015,09,30,06,58,7.50
2015,09,30,06,59,7.40
2015,09,30,07,00,7.40
2015,09,30,07,01,7.40
2015,09,30,07,02,7.40
2015,09,30,07,03,7.40
2015,09,30,07,04,7.40
2015,09,30,07,05,7.40
2015,09,30,07,06,7.40
2015,09,30,07,07,7.40
2015,09,30,07,08,7.30
2015,09,30,07,09,7.30
2015,09,30,07,10,7.30
2015,09,30,07,11,7.30
2015,09,30,07,12,7.30
2015,09,30,07,13,7.30
2015,09,30,07,14,7.30
2015,09,30,07,15,7.30
2015,09,30,07,16,7.30
2015,09,30,07,17,7.30
2015,09,30,07,18,7.30
2015,09,30,07,19,7.30
2015,09,30,07,20,7.30
2015,09,30,07,21,7.30
2015,09,30,07,22,7.30
2015,09,30,07,23,7.30
2015,09,30,07,24,7.30
2015,09,30,07,25,7.30
2015,09,30,07,26,7.30
2015,09,30,07,27,7.30
2015,09,30,07,28,7.30
2015,09,30,07,29,7.30
2015,09,30,07,30,7.20
2015,09,30,07,31,7.20
2015,09,30,07,32,7.20
2015,09,30,07,33,7.30
2015,09,30,07,34,7.20
2015,09,30,07,35,7.20
2015,09,30,07,36,7.20
2015,09,30,07,37,7.20
2015,09,30,07,38,7.20
2015,09,30,07,39,7.20
2015,09,30,07,40,7.20
2015,09,30,07,41,7.30
2015,09,30,07,42,7.20
2015,09,30,07,43,7.30
2015,09,30,07,44,7.30
2015,09,30,07,45,7.30
2015,09,30,07,46,7.30
2015,09,30,07,47,7.30
2015,09,30,07,48,7.30
2015,09,30,07,49,7.30
2015,09,30,07,50,7.30
2015,09,30,07,51,7.30
2015,09,30,07,52,7.30
2015,09,30,07,53,7.30
2015,09,30,07,54,7.30
2015,09,30,07,55,7.30
2015,09,30,07,56,7.30
2015,09,30,07,57,7.30
2015,09,30,07,58,7.30
2015,09,30,07,59,7.30
2015,09,30,08,00,7.30
2015,09,30,08,01,7.30
2015,09,30,08,02,7.30
2015,09,30,08,03,7.30
2015,09,30,08,04,7.30
2015,09,30,08,05,7.30
2015,09,30,08,06,7.30
2015,09,30,08,07,7.30
2015,09,30,08,08,7.30
2015,09,30,08,09,7.30
2015,09,30,08,10,7.30
2015,09,30,08,11,7.30
2015,09,30,08,12,7.30
2015,09,30,08,13,7.40
2015,09,30,08,14,7.40
2015,09,30,08,15,7.40
2015,09,30,08,16,7.40
2015,09,30,08,17,7.40
2015,09,30,08,18,7.40
2015,09,30,08,19,7.40
2015,09,30,08,20,7.40
2015,09,30,08,21,7.50
2015,09,30,08,22,7.50
2015,09,30,08,23,7.50
2015,09,30,08,24,7.60
2015,09,30,08,25,7.60
2015,09,30,08,26,7.70
2015,09,30,08,27,7.80
2015,09,30,08,28,7.90
2015,09,30,08,29,7.90
2015,09,30,08,30,8.00
2015,09,30,08,31,8.10
2015,09,30,08,32,8.10
2015,09,30,08,33,8.20
2015,09,30,08,34,8.30
2015,09,30,08,35,8.30
2015,09,30,08,36,8.40
2015,09,30,08,37,8.40
2015,09,30,08,38,8.50
2015,09,30,08,39,8.60
2015,09,30,08,40,8.60
2015,09,30,08,41,8.70
2015,09,30,08,42,8.70
2015,09,30,08,43,8.80
2015,09,30,08,44,8.80
2015,09,30,08,45,8.90
2015,09,30,08,46,9.00
2015,09,30,08,47,9.10
2015,09,30,08,48,9.30
2015,09,30,08,49,9.40
2015,09,30,08,50,9.50
2015,09,30,08,51,9.60
2015,09,30,08,52,9.70
2015,09,30,08,53,9.70
2015,09,30,08,54,9.80
2015,09,30,08,55,9.80
2015,09,30,08,56,9.80
2015,09,30,08,57,9.90
2015,09,30,08,58,9.90
2015,09,30,08,59,10.00
2015,09,30,09,00,10.00
2015,09,30,09,01,10.10
2015,09,30,09,02,10.10
2015,09,30,09,03,10.20
2015,09,30,09,04,10.20
2015,09,30,09,05,10.20
2015,09,30,09,06,10.30
2015,09,30,09,07,10.30
2015,09,30,09,08,10.40
2015,09,30,09,09,10.40
2015,09,30,09,10,10.50
2015,09,30,09,11,10.50
2015,09,30,09,12,10.60
2015,09,30,09,13,10.60
2015,09,30,09,14,10.60
2015,09,30,09,15,10.70
2015,09,30,09,16,10.80
2015,09,30,09,17,10.80
2015,09,30,09,18,10.90
2015,09,30,09,19,11.00
2015,09,30,09,20,11.10
2015,09,30,09,21,11.10
2015,09,30,09,22,11.20
2015,09,30,09,23,11.30
2015,09,30,09,24,11.30
2015,09,30,09,25,11.30
2015,09,30,09,26,11.40
2015,09,30,09,27,11.40
2015,09,30,09,28,11.50
2015,09,30,09,29,11.50
2015,09,30,09,30,11.60
2015,09,30,09,31,11.70
2015,09,30,09,32,11.70
2015,09,30,09,33,11.80
2015,09,30,09,34,11.90
2015,09,30,09,35,11.90
2015,09,30,09,36,12.00
2015,09,30,09,37,12.10
2015,09,30,09,38,12.20
2015,09,30,09,39,12.30
2015,09,30,09,40,12.40
2015,09,30,09,41,12.50
2015,09,30,09,42,12.60
2015,09,30,09,43,12.60
2015,09,30,09,44,12.70
2015,09,30,09,45,12.80
2015,09,30,09,46,12.80
2015,09,30,09,47,12.80
2015,09,30,09,48,12.80
2015,09,30,09,49,12.80
2015,09,30,09,50,12.80
2015,09,30,09,51,12.80
2015,09,30,09,52,12.80
2015,09,30,09,53,12.80
2015,09,30,09,54,12.80
2015,09,30,09,55,12.80
2015,09,30,09,56,12.80
2015,09,30,09,57,12.80
2015,09,30,09,58,12.80
2015,09,30,09,59,12.80
2015,09,30,10,00,12.80
2015,09,30,10,01,12.80
2015,09,30,10,02,12.80
2015,09,30,10,03,12.80
2015,09,30,10,04,12.80
2015,09,30,10,05,12.80
2015,09,30,10,06,12.80
2015,09,30,10,07,12.80
2015,09,30,10,08,12.80
2015,09,30,10,09,12.80
2015,09,30,10,10,12.80
2015,09,30,10,11,12.80
2015,09,30,10,12,12.80
2015,09,30,10,13,12.90
2015,09,30,10,14,12.90
2015,09,30,10,15,12.90
2015,09,30,10,16,13.00
2015,09,30,10,17,13.00
2015,09,30,10,18,13.00
2015,09,30,10,19,13.10
2015,09,30,10,20,13.10
2015,09,30,10,21,13.20
2015,09,30,10,22,13.20
2015,09,30,10,23,13.30
2015,09,30,10,24,13.40
2015,09,30,10,25,13.40
2015,09,30,10,26,13.50
2015,09,30,10,27,13.60
2015,09,30,10,28,13.60
2015,09,30,10,29,13.70
2015,09,30,10,30,13.80
2015,09,30,10,31,13.80
2015,09,30,10,32,13.90
2015,09,30,10,33,13.90
2015,09,30,10,34,14.00
2015,09,30,10,35,14.10
2015,09,30,10,36,14.10
2015,09,30,10,37,14.20
2015,09,30,10,38,14.20
2015,09,30,10,39,14.20
2015,09,30,10,40,14.20
2015,09,30,10,41,14.20
2015,09,30,10,42,14.30
2015,09,30,10,43,14.30
2015,09,30,10,44,14.30
2015,09,30,10,45,14.40
2015,09,30,10,46,14.40
2015,09,30,10,47,14.50
2015,09,30,10,48,14.50
2015,09,30,10,49,14.50
2015,09,30,10,50,14.60
2015,09,30,10,51,14.70
2015,09,30,10,52,14.70
2015,09,30,10,53,14.70
2015,09,30,10,54,14.70
2015,09,30,10,55,14.80
2015,09,30,10,56,14.80
2015,09,30,10,57,14.80
2015,09,30,10,58,14.80
2015,09,30,10,59,14.70
2015,09,30,11,00,14.70
2015,09,30,11,01,14.70
2015,09,30,11,02,14.70
2015,09,30,11,03,14.70
2015,09,30,11,04,14.70
2015,09,30,11,05,14.70
2015,09,30,11,06,14.80
2015,09,30,11,07,14.80
2015,09,30,11,08,14.90
2015,09,30,11,09,14.90
2015,09,30,11,10,15.00
2015,09,30,11,11,15.00
2015,09,30,11,12,15.10
2015,09,30,11,13,15.10
2015,09,30,11,14,15.20
2015,09,30,11,15,15.20
2015,09,30,11,16,15.20
2015,09,30,11,17,15.30
2015,09,30,11,18,15.30
2015,09,30,11,19,15.40
2015,09,30,11,20,15.50
2015,09,30,11,21,15.50
2015,09,30,11,22,15.60
2015,09,30,11,23,15.60
2015,09,30,11,24,15.60
2015,09,30,11,25,15.60
2015,09,30,11,26,15.60
2015,09,30,11,27,15.60
2015,09,30,11,28,15.60
2015,09,30,11,29,15.60
2015,09,30,11,30,15.60
2015,09,30,11,31,15.60
2015,09,30,11,32,15.60
2015,09,30,11,33,15.60
2015,09,30,11,34,15.60
2015,09,30,11,35,15.60
2015,09,30,11,36,15.50
2015,09,30,11,37,15.50
2015,09,30,11,38,15.50
2015,09,30,11,39,15.50
2015,09,30,11,40,15.50
2015,09,30,11,41,15.50
2015,09,30,11,42,15.50
2015,09,30,11,43,15.50
2015,09,30,11,44,15.50
2015,09,30,11,45,15.60
2015,09,30,11,46,15.60
2015,09,30,11,47,15.60
2015,09,30,11,48,15.60
2015,09,30,11,49,15.60
2015,09,30,11,50,15.70
2015,09,30,11,51,15.70
2015,09,30,11,52,15.70
2015,09,30,11,53,15.70
2015,09,30,11,54,15.70
2015,09,30,11,55,15.80
2015,09,30,11,56,15.80
2015,09,30,11,57,15.90
2015,09,30,11,58,16.00
2015,09,30,11,59,16.10
2015,09,30,12,00,16.10
2015,09,30,12,01,16.20
2015,09,30,12,02,16.20
2015,09,30,12,03,16.20
2015,09,30,12,04,16.30
2015,09,30,12,05,16.30
2015,09,30,12,06,16.30
2015,09,30,12,07,16.30
2015,09,30,12,08,16.30
2015,09,30,12,09,16.30
2015,09,30,12,10,16.30
2015,09,30,12,11,16.30
2015,09,30,12,12,16.30
2015,09,30,12,13,16.30
2015,09,30,12,14,16.30
2015,09,30,12,15,16.30
2015,09,30,12,16,16.30
2015,09,30,12,17,16.30
2015,09,30,12,18,16.40
2015,09,30,12,19,16.40
2015,09,30,12,20,16.40
2015,09,30,12,21,16.40
2015,09,30,12,22,16.40
2015,09,30,12,23,16.40
2015,09,30,12,24,16.40
2015,09,30,12,25,16.40
2015,09,30,12,26,16.40
2015,09,30,12,27,16.40
2015,09,30,12,28,16.40
2015,09,30,12,29,16.40
2015,09,30,12,30,16.50
2015,09,30,12,31,16.50
2015,09,30,12,32,16.40
2015,09,30,12,33,16.40
2015,09,30,12,34,16.40
2015,09,30,12,35,16.40
2015,09,30,12,36,16.40
2015,09,30,12,37,16.40
2015,09,30,12,38,16.40
2015,09,30,12,39,16.40
2015,09,30,12,40,16.40
2015,09,30,12,41,16.40
2015,09,30,12,42,16.40
2015,09,30,12,43,16.40
2015,09,30,12,44,16.50
2015,09,30,12,45,16.50
2015,09,30,12,46,16.50
2015,09,30,12,47,16.50
2015,09,30,12,48,16.50
2015,09,30,12,49,16.60
2015,09,30,12,50,16.60
2015,09,30,12,51,16.60
2015,09,30,12,52,16.60
2015,09,30,12,53,16.50
2015,09,30,12,54,16.50
2015,09,30,12,55,16.50
2015,09,30,12,56,16.50
2015,09,30,12,57,16.50
2015,09,30,12,58,16.50
2015,09,30,12,59,16.50
2015,09,30,13,00,16.60
2015,09,30,13,01,16.60
2015,09,30,13,02,16.60
2015,09,30,13,03,16.60
2015,09,30,13,04,16.70
2015,09,30,13,05,16.70
2015,09,30,13,06,16.80
2015,09,30,13,07,16.80
2015,09,30,13,08,16.90
2015,09,30,13,09,16.90
2015,09,30,13,10,16.90
2015,09,30,13,11,16.90
2015,09,30,13,12,16.90
2015,09,30,13,13,16.90
2015,09,30,13,14,16.90
2015,09,30,13,15,16.90
2015,09,30,13,16,16.90
2015,09,30,13,17,16.90
2015,09,30,13,18,16.90
2015,09,30,13,19,16.90
2015,09,30,13,20,16.90
2015,09,30,13,21,17.00
2015,09,30,13,22,17.10
2015,09,30,13,23,17.10
2015,09,30,13,24,17.10
2015,09,30,13,25,17.20
2015,09,30,13,26,17.20
2015,09,30,13,27,17.30
2015,09,30,13,28,17.30
2015,09,30,13,29,17.30
2015,09,30,13,30,17.40
2015,09,30,13,31,17.40
2015,09,30,13,32,17.40
2015,09,30,13,33,17.50
2015,09,30,13,34,17.40
2015,09,30,13,35,17.40
2015,09,30,13,36,17.40
2015,09,30,13,37,17.40
2015,09,30,13,38,17.40
2015,09,30,13,39,17.40
2015,09,30,13,40,17.40
2015,09,30,13,41,17.40
2015,09,30,13,42,17.30
2015,09,30,13,43,17.30
2015,09,30,13,44,17.30
2015,09,30,13,45,17.40
2015,09,30,13,46,17.40
2015,09,30,13,47,17.50
2015,09,30,13,48,17.50
2015,09,30,13,49,17.50
2015,09,30,13,50,17.50
2015,09,30,13,51,17.50
2015,09,30,13,52,17.50
2015,09,30,13,53,17.50
2015,09,30,13,54,17.50
2015,09,30,13,55,17.50
2015,09,30,13,56,17.50
2015,09,30,13,57,17.60
2015,09,30,13,58,17.60
2015,09,30,13,59,17.70
2015,09,30,14,00,17.70
2015,09,30,14,01,17.70
2015,09,30,14,02,17.80
2015,09,30,14,03,17.80
2015,09,30,14,04,17.90
2015,09,30,14,05,17.90
2015,09,30,14,06,17.90
2015,09,30,14,07,18.00
2015,09,30,14,08,18.10
2015,09,30,14,09,18.10
2015,09,30,14,10,18.20
2015,09,30,14,11,18.20
2015,09,30,14,12,18.20
2015,09,30,14,13,18.20
2015,09,30,14,14,18.20
2015,09,30,14,15,18.20
2015,09,30,14,16,18.10
2015,09,30,14,17,18.10
2015,09,30,14,18,18.00
2015,09,30,14,19,18.00
2015,09,30,14,20,17.90
2015,09,30,14,21,17.90
2015,09,30,14,22,17.90
2015,09,30,14,23,17.80
2015,09,30,14,24,17.80
2015,09,30,14,25,17.80
2015,09,30,14,26,17.80
2015,09,30,14,27,17.90
2015,09,30,14,28,17.90
2015,09,30,14,29,18.00
2015,09,30,14,30,18.10
2015,09,30,14,31,18.10
2015,09,30,14,32,18.10
2015,09,30,14,33,18.10
2015,09,30,14,34,18.00
2015,09,30,14,35,18.00
2015,09,30,14,36,18.00
2015,09,30,14,37,18.00
2015,09,30,14,38,18.00
2015,09,30,14,39,17.90
2015,09,30,14,40,17.90
2015,09,30,14,41,17.90
2015,09,30,14,42,17.90
2015,09,30,14,43,17.90
2015,09,30,14,44,17.90
2015,09,30,14,45,17.90
2015,09,30,14,46,17.90
2015,09,30,14,47,17.90
2015,09,30,14,48,17.90
2015,09,30,14,49,17.90
2015,09,30,14,50,17.90
2015,09,30,14,51,17.90
2015,09,30,14,52,17.90
2015,09,30,14,53,18.00
2015,09,30,14,54,18.00
2015,09,30,14,55,18.10
2015,09,30,14,56,18.10
2015,09,30,14,57,18.20
2015,09,30,14,58,18.20
2015,09,30,14,59,18.30
2015,09,30,15,00,18.30
2015,09,30,15,01,18.40
2015,09,30,15,02,18.40
2015,09,30,15,03,18.40
2015,09,30,15,04,18.40
2015,09,30,15,05,18.50
2015,09,30,15,06,18.50
2015,09,30,15,07,18.50
2015,09,30,15,08,18.50
2015,09,30,15,09,18.50
2015,09,30,15,10,18.50
2015,09,30,15,11,18.50
2015,09,30,15,12,18.40
2015,09,30,15,13,18.40
2015,09,30,15,14,18.40
2015,09,30,15,15,18.40
2015,09,30,15,16,18.40
2015,09,30,15,17,18.40
2015,09,30,15,18,18.40
2015,09,30,15,19,18.40
2015,09,30,15,20,18.40
2015,09,30,15,21,18.40
2015,09,30,15,22,18.40
2015,09,30,15,23,18.40
2015,09,30,15,24,18.40
2015,09,30,15,25,18.40
2015,09,30,15,26,18.50
2015,09,30,15,27,18.50
2015,09,30,15,28,18.60
2015,09,30,15,29,18.60
2015,09,30,15,30,18.60
2015,09,30,15,31,18.60
2015,09,30,15,32,18.60
2015,09,30,15,33,18.60
2015,09,30,15,34,18.60
2015,09,30,15,35,18.60
2015,09,30,15,36,18.60
2015,09,30,15,37,18.60
2015,09,30,15,38,18.60
2015,09,30,15,39,18.60
2015,09,30,15,40,18.60
2015,09,30,15,41,18.60
2015,09,30,15,42,18.50
2015,09,30,15,43,18.50
2015,09,30,15,44,18.50
2015,09,30,15,45,18.50
2015,09,30,15,46,18.50
2015,09,30,15,47,18.50
2015,09,30,15,48,18.40
2015,09,30,15,49,18.40
2015,09,30,15,50,18.40
2015,09,30,15,51,18.40
2015,09,30,15,52,18.30
2015,09,30,15,53,18.30
2015,09,30,15,54,18.30
2015,09,30,15,55,18.20
2015,09,30,15,56,18.20
2015,09,30,15,57,18.10
2015,09,30,15,58,18.10
2015,09,30,15,59,18.00
2015,09,30,16,00,18.00
2015,09,30,16,01,17.90
2015,09,30,16,02,17.90
2015,09,30,16,03,17.90
2015,09,30,16,04,17.90
2015,09,30,16,05,17.90
2015,09,30,16,06,17.90
2015,09,30,16,07,17.90
2015,09,30,16,08,17.90
2015,09,30,16,09,17.90
2015,09,30,16,10,17.80
2015,09,30,16,11,17.80
2015,09,30,16,12,17.80
2015,09,30,16,13,17.80
2015,09,30,16,14,17.80
2015,09,30,16,15,17.80
2015,09,30,16,16,17.80
2015,09,30,16,17,17.80
2015,09,30,16,18,17.80
2015,09,30,16,19,17.80
2015,09,30,16,20,17.80
2015,09,30,16,21,17.80
2015,09,30,16,22,17.80
2015,09,30,16,23,17.80
2015,09,30,16,24,17.80
2015,09,30,16,25,17.80
2015,09,30,16,26,17.80
2015,09,30,16,27,17.80
2015,09,30,16,28,17.80
2015,09,30,16,29,17.80
2015,09,30,16,30,17.90
2015,09,30,16,31,17.90
2015,09,30,16,32,17.90
2015,09,30,16,33,17.90
2015,09,30,16,34,17.90
2015,09,30,16,35,17.90
2015,09,30,16,36,18.00
2015,09,30,16,37,18.00
2015,09,30,16,38,18.10
2015,09,30,16,39,18.10
2015,09,30,16,40,18.10
2015,09,30,16,41,18.20
2015,09,30,16,42,18.20
2015,09,30,16,43,18.20
2015,09,30,16,44,18.20
2015,09,30,16,45,18.20
2015,09,30,16,46,18.20
2015,09,30,16,47,18.20
2015,09,30,16,48,18.30
2015,09,30,16,49,18.30
2015,09,30,16,50,18.30
2015,09,30,16,51,18.30
2015,09,30,16,52,18.30
2015,09,30,16,53,18.30
2015,09,30,16,54,18.30
2015,09,30,16,55,18.30
2015,09,30,16,56,18.30
2015,09,30,16,57,18.30
2015,09,30,16,58,18.30
2015,09,30,16,59,18.30
2015,09,30,17,00,18.30
2015,09,30,17,01,18.30
2015,09,30,17,02,18.30
2015,09,30,17,03,18.20
2015,09,30,17,04,18.20
2015,09,30,17,05,18.20
2015,09,30,17,06,18.20
2015,09,30,17,07,18.20
2015,09,30,17,08,18.20
2015,09,30,17,09,18.10
2015,09,30,17,10,18.10
2015,09,30,17,11,18.10
2015,09,30,17,12,18.10
2015,09,30,17,13,18.00
2015,09,30,17,14,18.00
2015,09,30,17,15,17.90
2015,09,30,17,16,17.90
2015,09,30,17,17,17.90
2015,09,30,17,18,17.90
2015,09,30,17,19,17.90
2015,09,30,17,20,17.90
2015,09,30,17,21,17.80
2015,09,30,17,22,17.80
2015,09,30,17,23,17.80
2015,09,30,17,24,17.80
2015,09,30,17,25,17.80
2015,09,30,17,26,17.80
2015,09,30,17,27,17.80
2015,09,30,17,28,17.80
2015,09,30,17,29,17.70
2015,09,30,17,30,17.70
2015,09,30,17,31,17.70
2015,09,30,17,32,17.70
2015,09,30,17,33,17.70
2015,09,30,17,34,17.60
2015,09,30,17,35,17.60
2015,09,30,17,36,17.60
2015,09,30,17,37,17.60
2015,09,30,17,38,17.60
2015,09,30,17,39,17.60
2015,09,30,17,40,17.50